GFSFLT2_500_spd_000.txt.gz
Wind_Speed
5 2 3 4 6 8 9 10 11 13 14 15 16 16 16 17 17 17 18 18 18 17 18 19 19 19 19 19 20 19 19 19
2 2 4 7 9 9 10 13 14 16 17 18 18 20 20 22 22 21 22 24 25 25 25 25 24 24 22 20 21 21 21 19
6 8 10 11 13 15 16 16 16 18 20 22 23 25 26 24 28 27 26 28 27 27 28 27 27 28 27 26 24 22 23 25
9 10 12 13 15 17 19 21 22 23 24 26 28 29 29 30 27 28 29 30 30 30 29 30 28 28 27 27 29 28 27 26
11 12 14 16 20 21 23 23 25 27 28 30 31 31 30 30 30 31 32 32 34 35 36 34 33 34 33 33 31 31 30 29
11 15 17 20 22 25 26 27 29 31 31 32 33 34 34 35 36 39 41 42 41 40 37 36 35 34 34 35 35 36 36 35
16 19 20 24 25 28 31 33 34 35 34 35 37 38 38 38 40 43 42 41 42 40 37 37 36 35 34 35 35 34 36 37
22 25 21 24 27 31 33 36 38 38 38 38 38 40 41 42 45 45 43 42 40 37 38 38 39 39 37 35 35 37 37 36
28 13 24 28 28 32 35 37 39 41 42 43 43 45 45 45 46 43 41 40 40 42 41 40 40 40 40 42 42 38 39 41
32 12 29 32 35 37 38 40 42 44 45 48 47 47 44 45 45 45 44 44 47 48 49 49 50 51 50 50 48 48 47 45
38 44 39 37 38 43 43 45 46 47 49 53 52 53 50 50 50 49 48 50 53 54 55 55 56 56 57 58 59 61 60 58
38 45 43 39 45 40 49 50 49 50 52 56 53 54 52 53 53 55 56 59 60 61 62 62 62 63 63 62 63 63 65 68
43 44 42 40 49 51 50 51 51 55 57 56 56 56 54 57 59 60 62 65 67 67 66 66 67 68 69 69 69 69 71 69
43 43 45 51 51 53 52 52 55 56 57 57 56 53 53 55 60 65 68 65 68 72 76 76 74 73 74 74 74 73 72 72
46 49 49 49 52 54 55 56 55 55 55 57 62 59 58 59 64 70 76 73 73 78 77 77 78 77 76 77 78 77 75 72
47 48 48 50 52 55 55 55 58 59 61 62 63 64 65 68 73 77 76 76 76 77 79 79 80 78 78 78 78 78 77 80
45 46 49 50 50 52 54 59 59 60 62 64 66 68 71 74 75 77 78 78 78 78 79 78 79 81 81 80 80 82 83 85
41 46 48 49 51 52 54 57 61 64 67 70 72 76 76 76 77 78 80 81 80 83 82 82 83 85 86 86 86 86 86 89
41 44 48 51 56 58 62 65 67 70 74 75 76 78 77 76 77 78 79 80 84 87 88 94 97 94 91 90 90 91 91 91
43 44 50 55 59 64 68 71 74 77 78 78 78 79 78 80 80 82 82 84 88 94 94 98 96 92 88 87 84 79 75 71

GFSFLT2_500_spd_003.txt.gz
Wind_Speed
5 3 1 3 6 8 9 10 11 12 12 13 15 16 19 20 21 22 22 22 22 23 24 24 25 24 21 21 22 22 25 24
1 3 5 6 8 9 11 13 14 16 15 15 18 19 23 24 24 23 23 23 24 24 23 23 23 24 23 23 24 25 27 26
4 6 7 9 11 12 15 17 18 22 22 22 24 24 26 27 27 25 24 23 24 25 24 25 27 25 24 23 24 24 27 28
6 6 8 12 11 13 15 18 20 23 24 26 27 26 26 26 27 27 28 29 31 34 34 33 33 32 29 27 27 27 27 27
9 12 13 10 13 17 20 20 22 24 26 28 29 31 31 32 32 32 33 34 35 35 34 34 34 32 30 30 28 28 28 28
15 13 15 18 19 20 19 21 25 26 29 32 33 35 36 36 37 38 38 38 40 38 37 36 32 30 30 31 29 28 28 28
16 18 16 20 22 26 27 30 32 33 34 34 34 35 37 38 40 41 41 41 40 37 35 33 32 31 31 30 31 32 32 32
16 26 18 16 16 27 30 34 36 36 36 37 36 38 40 41 45 42 41 39 39 35 34 34 36 37 36 35 34 35 37 38
27 16 38 25 25 36 32 32 38 36 42 40 41 42 45 45 47 45 45 42 41 38 38 40 43 43 42 41 42 42 42 42
31 29 36 23 36 35 38 37 39 46 47 47 48 48 47 48 47 46 46 45 45 45 45 48 51 51 51 52 51 50 50 50
38 38 35 35 37 37 35 43 50 48 51 51 54 55 55 52 51 53 53 52 51 52 53 56 59 59 59 58 58 57 56 56
40 42 40 41 39 42 46 47 49 52 52 52 52 52 53 56 56 56 56 56 59 62 63 61 63 64 66 65 64 62 61 60
44 43 44 46 49 42 41 53 52 55 55 53 53 55 57 56 56 58 60 60 61 64 66 69 72 74 73 72 70 69 69 70
46 45 46 47 42 46 49 48 54 56 54 54 56 57 60 62 65 65 65 66 67 70 72 74 75 77 77 77 77 74 73 72
45 47 48 48 47 47 50 53 51 51 54 56 58 61 63 66 68 71 74 75 75 75 76 77 77 75 77 78 80 81 81 78
42 44 46 46 48 46 50 51 53 54 58 60 63 64 67 71 74 77 79 80 80 81 79 78 77 77 77 79 80 83 85 86
39 39 39 41 44 47 50 52 56 58 61 65 68 71 75 78 79 80 81 82 81 81 80 80 80 79 79 81 82 85 88 91
39 40 42 43 45 47 50 53 58 62 65 68 72 76 79 78 81 82 82 81 81 81 81 80 81 83 86 88 88 89 88 95
36 39 42 47 50 54 57 62 67 70 74 77 79 81 82 83 83 83 83 83 82 82 83 85 87 88 90 90 91 91 92 92
37 39 41 45 51 56 61 66 71 72 76 79 80 80 80 80 81 81 83 83 83 83 85 87 89 90 89 87 84 77 71 67

GFSFLT2_500_spd_006.txt.gz
Wind_Speed
9 7 5 4 3 6 7 9 11 11 13 14 15 18 19 21 22 24 25 26 25 24 24 24 24 24 24 25 26 27 25 25
8 6 6 7 9 11 11 13 14 14 16 18 20 22 24 25 27 26 24 24 24 23 24 25 25 24 25 27 25 25 24 25
7 8 11 12 12 13 12 14 15 18 20 20 23 25 26 27 26 25 25 25 27 28 29 32 33 31 30 31 29 28 26 24
11 13 14 11 10 13 15 17 18 20 21 22 22 24 26 27 27 28 28 30 31 33 34 35 36 36 33 33 31 30 29 28
16 15 13 12 13 16 17 20 25 23 24 25 26 27 29 29 30 30 31 34 36 36 37 36 34 34 33 30 27 28 30 28
17 18 16 17 18 22 22 21 24 26 27 28 29 31 32 32 32 34 35 35 36 36 36 34 32 29 28 28 31 31 32 31
22 20 19 19 20 27 22 27 29 26 27 28 28 35 36 38 39 40 39 38 37 36 34 32 30 28 28 31 33 34 34 35
17 20 20 9 27 24 33 32 29 32 31 28 36 37 38 41 43 44 42 40 39 38 36 35 33 34 34 35 36 37 39 41
19 21 19 24 26 28 34 33 35 35 37 41 43 45 43 44 42 41 41 41 42 44 44 42 40 39 40 42 44 45 44 45
32 31 24 29 31 32 36 36 40 39 38 44 50 47 47 41 41 42 44 45 45 46 48 49 50 51 51 52 52 53 52 51
34 30 34 39 38 39 40 40 37 37 46 49 51 52 49 48 48 48 48 48 49 52 53 55 57 57 58 59 60 60 61 62
30 37 41 41 44 44 42 39 38 44 48 49 52 50 50 50 51 52 54 56 56 57 59 61 64 65 65 66 67 68 69 70
41 41 41 49 46 40 37 40 42 47 50 49 50 51 52 55 56 59 60 61 63 65 67 69 71 73 73 73 73 72 73 75
42 43 45 44 36 40 43 45 47 47 46 52 55 57 58 60 63 66 68 70 72 73 74 75 77 78 78 79 79 78 78 79
42 43 43 44 45 45 47 45 45 48 52 55 59 61 64 67 69 72 74 76 79 81 82 82 82 82 84 85 84 85 86 83
42 44 45 45 45 44 44 46 48 51 54 58 61 65 69 71 74 77 81 82 84 84 84 84 84 84 86 86 87 88 88 87
39 40 41 43 42 43 45 47 51 54 58 62 66 69 73 76 78 80 81 82 81 80 81 83 85 86 87 88 88 88 87 88
36 39 39 38 41 42 44 48 53 58 62 66 70 72 76 78 82 85 87 83 81 81 81 82 83 84 85 87 87 89 90 91
33 36 39 41 41 43 48 54 59 63 67 72 76 82 85 84 84 84 83 84 84 84 85 86 87 87 87 88 89 90 92 92
27 30 33 39 46 53 58 64 67 72 75 77 82 84 87 87 86 85 85 86 88 89 90 89 86 87 87 86 84 81 78 75

GFSFLT2_500_spd_009.txt.gz
Wind_Speed
10 11 10 8 8 9 9 12 13 14 17 18 19 20 22 24 26 29 31 32 29 26 25 24 24 25 26 28 28 26 27 27
10 11 10 10 11 11 13 16 16 17 18 20 22 23 25 28 28 28 28 28 29 27 27 27 28 29 30 30 29 30 28 30
12 10 10 13 12 14 16 18 19 21 24 24 24 25 26 27 26 27 27 28 30 31 33 35 36 35 35 34 32 29 29 28
11 13 14 14 13 16 18 20 22 24 25 25 25 25 27 29 29 29 28 29 32 34 36 36 37 37 36 35 32 29 25 25
14 14 12 13 16 19 20 24 22 23 25 27 28 28 29 27 31 32 31 32 35 36 37 32 29 32 34 34 31 29 25 25
13 14 15 19 19 20 23 30 26 27 29 31 30 31 29 30 35 33 34 35 35 33 34 33 31 30 29 30 33 33 31 29
16 16 18 19 21 21 26 32 25 32 31 29 32 34 31 33 38 37 36 34 32 32 34 33 32 31 31 31 32 35 37 37
15 14 18 21 21 20 22 24 28 32 33 33 34 36 38 38 39 38 37 36 36 36 37 36 35 35 35 35 37 37 39 41
18 20 24 23 19 26 28 31 32 36 35 32 35 35 37 42 42 36 39 40 40 40 42 44 44 43 43 43 44 45 46 47
21 23 22 13 27 31 32 43 39 37 35 35 36 39 46 46 40 40 40 42 42 43 46 47 48 49 49 50 51 53 55 56
21 18 28 34 30 29 31 42 40 35 36 40 44 48 48 44 43 44 46 46 48 49 50 51 53 55 56 58 60 62 63 62
25 27 35 35 38 40 43 41 34 33 42 48 48 45 47 48 49 50 51 52 54 55 56 58 61 62 63 64 66 68 70 70
33 36 39 40 43 42 42 37 43 41 47 43 46 48 48 49 52 56 59 61 62 63 64 65 66 68 71 72 73 74 76 77
33 42 45 45 44 43 42 42 45 47 47 48 49 51 54 57 60 64 67 69 70 72 74 75 75 77 78 78 78 77 77 79
36 37 41 45 45 44 45 46 47 47 48 49 52 56 60 64 67 70 73 76 77 78 81 82 83 82 82 82 81 81 80 77
43 43 48 48 46 45 45 45 45 47 50 54 58 63 66 70 73 76 78 81 81 82 84 86 85 85 83 82 83 86 87 91
45 47 43 40 40 40 41 43 46 50 54 59 62 66 69 72 76 79 82 84 87 88 87 85 85 85 86 87 88 89 92 94
45 42 41 39 39 40 41 44 49 53 58 62 66 68 72 79 86 86 88 90 89 89 89 90 90 91 91 90 92 92 93 94
36 35 33 35 38 41 44 49 54 60 64 69 74 79 84 86 88 90 90 90 90 90 91 92 94 92 91 89 86 84 83 82
30 33 37 41 44 47 52 58 65 68 72 76 80 83 87 90 92 92 93 95 98 97 98 97 90 87 85 73 74 78 79 67

GFSFLT2_500_spd_012.txt.gz
Wind_Speed
10 7 10 9 8 10 12 14 14 16 18 20 21 22 24 28 30 30 31 29 29 28 26 26 27 27 29 30 30 30 29 29
8 10 10 9 11 13 14 16 17 19 20 21 23 25 29 31 31 30 29 29 31 31 30 30 30 30 31 32 33 32 29 28
6 7 8 10 12 15 17 18 19 20 22 23 26 28 30 31 31 30 29 30 31 31 31 32 33 34 36 35 32 31 29 29
6 8 10 12 14 16 17 18 18 18 21 22 26 27 30 33 31 31 31 32 32 33 35 35 34 34 33 32 32 30 27 28
9 10 12 13 15 19 20 21 23 25 26 29 29 32 33 32 35 34 32 35 37 36 35 34 31 28 27 28 29 30 28 26
8 11 15 18 20 20 23 23 23 25 26 31 31 31 31 33 35 35 35 41 39 34 32 32 31 29 27 28 27 28 29 30
13 17 20 21 20 19 16 20 21 24 25 29 31 32 35 37 38 36 37 41 36 32 32 33 33 32 31 31 32 32 33 32
17 20 20 22 22 24 26 24 20 22 26 29 31 32 33 37 35 41 42 41 39 37 36 36 38 39 39 38 38 39 39 39
19 22 23 25 24 23 23 27 19 35 33 34 31 33 36 37 40 44 45 41 40 38 38 39 40 41 42 42 41 43 43 45
21 19 21 19 17 21 31 29 37 37 37 32 26 36 36 43 46 42 40 40 40 41 42 44 45 47 48 49 50 51 52 53
20 16 21 28 27 31 31 39 35 38 32 34 35 42 44 48 43 42 43 45 47 50 51 52 54 55 55 56 59 61 62 63
20 21 23 28 36 39 38 40 38 33 38 39 44 50 51 49 47 48 51 54 55 57 59 60 61 61 63 65 67 69 71 72
27 28 29 37 42 49 49 46 41 44 45 48 51 50 47 48 50 55 58 61 62 64 67 70 71 72 74 75 76 77 77 78
29 35 41 44 47 49 49 49 48 48 46 45 45 46 47 51 56 61 64 66 68 71 75 78 80 81 82 83 83 81 80 79
36 39 41 42 47 48 43 41 42 42 43 44 45 48 53 59 64 68 70 71 73 77 80 81 84 86 87 89 90 90 91 89
37 38 44 46 46 42 41 41 42 42 44 46 50 55 60 63 65 67 71 76 79 83 84 86 91 92 94 94 94 96 95 93
34 49 48 46 44 44 42 41 43 47 50 53 56 59 63 65 69 74 79 84 86 88 89 93 96 96 93 93 93 93 94 95
48 41 42 43 41 40 42 45 47 49 53 57 62 65 68 73 78 83 88 90 91 93 96 96 96 95 95 95 92 89 86 85
41 41 42 40 41 45 47 50 53 56 60 64 67 69 75 80 83 86 89 93 95 96 95 101 105 99 93 88 86 82 76 75
42 42 41 44 49 52 53 53 55 59 63 66 69 74 79 82 86 90 95 96 98 99 99 99 92 88 81 78 74 75 76 74

GFSFLT2_500_spd_015.txt.gz
Wind_Speed
10 10 9 9 8 8 9 8 13 15 18 20 22 23 25 26 27 29 30 31 31 29 29 30 29 28 27 27 29 29 31 31
9 8 9 8 5 7 9 13 17 18 19 20 23 26 28 27 26 27 29 30 31 29 33 31 29 29 29 32 32 30 29 28
7 6 4 4 7 11 14 16 18 19 20 23 25 26 29 27 28 29 30 32 34 31 33 37 36 35 33 33 34 34 30 28
4 3 4 7 10 14 15 18 20 23 24 24 26 29 30 25 29 32 31 32 33 33 36 39 36 33 31 30 29 29 29 27
5 4 6 9 12 14 19 21 23 27 25 23 27 28 31 31 32 33 32 34 33 33 39 38 34 31 28 27 26 25 24 25
4 8 11 14 15 18 24 25 26 27 22 21 25 29 31 33 34 34 36 37 31 36 38 36 35 35 32 30 30 29 28 27
6 9 13 17 20 21 22 25 25 25 25 24 28 27 31 33 34 34 32 32 37 43 45 40 38 36 35 35 34 34 34 34
10 14 16 20 24 24 27 27 21 29 26 29 29 26 29 30 33 35 34 37 41 46 43 40 38 37 37 38 38 39 39 39
15 17 18 21 22 30 33 29 23 23 29 32 34 33 30 35 32 37 39 43 43 43 41 39 40 42 44 45 46 46 46 47
18 19 18 17 23 32 15 26 28 32 34 34 28 33 34 35 42 46 45 49 46 44 43 46 48 50 52 52 54 54 54 54
23 20 20 21 22 35 37 38 38 35 37 35 36 40 46 46 49 50 47 46 45 47 50 53 55 57 58 60 61 62 63 64
18 19 22 21 28 37 40 35 36 43 44 45 46 46 47 46 46 45 46 46 50 54 57 58 60 62 65 68 70 72 73 72
22 23 28 34 38 39 42 44 48 49 46 44 43 44 44 45 46 47 49 53 59 62 64 66 68 70 73 75 75 76 74 76
27 32 35 37 40 43 46 49 48 46 43 41 42 43 44 46 48 52 57 62 65 64 67 69 72 74 77 80 81 82 82 84
33 35 33 36 40 44 46 45 43 41 41 42 44 47 50 53 56 60 63 63 63 67 70 73 77 81 87 90 92 95 97 96
33 36 38 43 48 47 43 46 45 44 46 49 51 53 55 57 60 62 62 66 70 74 76 82 86 89 94 98 102 105 105 105
36 39 46 47 43 43 46 45 44 47 49 51 53 55 57 60 61 63 68 72 76 80 84 88 92 96 98 100 102 105 103 100
38 38 41 43 43 44 44 44 48 52 55 55 56 58 60 61 65 70 74 77 82 87 91 93 95 100 103 104 102 96 88 79
34 36 40 42 45 49 50 51 53 53 55 57 59 61 64 67 71 75 79 83 88 91 93 97 101 104 101 95 89 80 72 68
35 37 40 44 47 49 49 51 53 56 57 59 61 64 67 71 75 78 83 87 90 94 99 103 103 100 91 80 69 62 58 56

GFSFLT2_500_spd_018.txt.gz
Wind_Speed
8 9 7 8 10 9 7 7 8 10 14 16 19 22 23 24 25 26 25 26 26 29 28 26 26 26 27 28 29 30 31 30
8 8 9 10 9 8 8 9 11 14 17 19 22 24 23 24 27 31 28 27 30 26 29 26 28 33 33 32 32 31 31 32
8 10 10 9 9 9 11 12 15 17 20 20 23 24 26 28 30 30 28 29 28 27 29 29 32 34 37 35 33 32 31 32
10 9 8 8 9 11 12 16 17 20 23 25 27 28 26 28 28 29 31 31 29 29 33 30 30 34 34 32 31 30 29 30
8 7 8 10 11 12 15 19 23 25 28 28 28 26 27 28 31 31 31 32 32 31 31 31 34 38 40 36 34 31 30 29
8 8 8 9 11 15 18 21 24 25 25 23 24 25 29 37 36 31 31 31 32 32 29 33 38 41 40 37 35 34 33 33
6 7 8 11 15 19 22 25 27 26 25 29 33 30 23 26 29 31 30 33 33 35 36 38 40 41 41 37 35 35 35 37
9 8 11 15 19 22 25 27 34 32 17 23 22 26 24 27 29 32 32 33 35 39 41 43 44 43 41 38 39 40 41 42
11 12 14 17 22 24 24 27 14 21 22 23 25 29 36 41 40 35 41 42 46 49 49 45 41 42 41 43 45 48 48 49
14 17 20 19 24 24 26 18 24 34 29 34 36 39 41 43 44 48 53 50 49 48 45 42 41 43 46 49 50 52 56 57
16 18 21 22 24 24 29 32 33 32 34 37 40 43 44 44 45 46 47 47 47 47 46 44 47 51 53 54 55 56 60 62
20 21 21 21 25 32 37 40 42 42 43 43 42 41 41 42 44 46 48 49 50 51 51 54 57 59 60 61 62 62 63 66
22 22 23 30 32 36 38 41 43 47 47 42 42 40 41 42 45 47 50 53 55 57 59 62 63 63 63 65 67 68 70 72
20 23 28 33 36 40 42 45 48 46 45 44 43 43 46 49 52 55 56 58 60 61 62 61 63 67 67 70 72 75 80 84
22 28 33 35 39 40 43 49 44 44 47 48 48 49 51 53 55 56 56 58 59 61 63 66 69 72 74 78 81 85 89 92
28 30 30 33 37 38 40 42 45 48 50 49 51 53 54 55 56 57 58 60 62 65 68 72 76 81 84 87 90 93 96 97
22 22 25 29 32 36 39 42 45 48 51 53 55 56 56 58 58 59 61 63 66 71 75 78 82 84 88 91 95 99 102 105
22 25 27 31 34 38 41 44 47 50 52 55 57 58 58 60 60 62 64 68 72 76 81 85 88 91 93 97 101 104 104 95
24 26 30 35 39 43 46 48 50 52 54 57 58 59 61 61 62 65 70 75 79 83 86 89 90 94 99 104 105 98 86 75
26 29 33 37 41 45 48 49 52 53 56 58 61 63 62 62 64 69 75 78 82 86 88 90 95 100 103 99 89 76 65 56

GFSFLT2_500_spd_021.txt.gz
Wind_Speed
17 10 8 7 7 8 8 7 6 7 8 12 16 19 21 23 25 24 26 29 31 27 27 25 25 24 26 29 28 29 28 29
3 4 5 7 6 7 7 8 8 9 13 17 19 22 25 27 28 26 27 30 27 24 27 28 28 30 32 30 32 31 31 32
1 2 5 5 7 6 7 8 10 13 17 19 21 25 28 29 29 30 31 28 27 25 27 30 32 32 34 31 34 37 38 36
4 5 6 8 7 7 8 10 13 16 19 21 25 27 27 27 29 30 30 31 32 33 29 29 31 35 34 32 35 39 37 38
4 6 6 8 6 8 9 13 16 19 21 24 26 25 27 27 34 35 36 37 32 31 30 30 34 31 33 35 38 39 38 40
7 8 6 6 7 10 14 17 20 22 24 25 22 28 33 32 32 24 27 32 31 30 33 33 34 38 36 38 39 37 38 39
6 7 8 8 10 14 18 25 27 27 27 27 22 23 27 32 29 24 36 32 40 43 39 38 37 39 41 43 43 40 38 37
7 7 9 12 15 19 21 32 31 31 17 20 27 24 26 29 32 52 48 38 41 45 45 49 49 48 49 47 42 40 41 41
9 10 12 15 19 22 26 32 26 23 20 24 24 27 46 33 39 43 43 41 45 47 51 47 47 45 45 44 42 42 43 45
11 15 17 19 20 24 22 26 34 23 25 38 34 36 45 42 41 42 42 42 42 43 45 46 47 50 50 47 48 49 52 55
13 16 20 21 21 22 27 36 39 34 36 39 41 42 41 40 40 40 40 41 44 45 48 51 53 52 54 54 57 59 61 63
19 20 22 24 24 27 32 38 39 41 42 45 46 43 42 44 41 41 44 47 50 53 55 56 56 56 56 56 57 59 61 63
24 24 25 22 27 32 36 38 40 40 43 45 45 46 46 47 50 51 52 52 55 56 57 57 58 59 60 59 59 62 65 69
26 27 26 28 30 35 34 35 36 38 40 43 44 46 48 50 50 53 55 53 54 57 59 58 58 58 61 63 64 66 70 74
25 26 27 30 31 29 29 31 35 38 40 43 45 47 50 51 53 54 55 57 59 59 59 57 60 62 67 70 74 76 79 80
26 25 24 22 25 27 30 33 38 40 44 47 50 50 51 53 57 57 59 60 59 58 60 61 66 70 73 77 81 82 84 86
18 19 20 23 26 29 32 36 40 43 46 50 53 55 56 58 60 61 62 63 61 62 63 68 72 76 81 83 85 87 91 95
18 20 22 25 28 32 35 39 43 46 49 50 53 58 60 60 61 65 66 64 64 67 71 75 78 82 83 86 91 94 98 101
21 23 26 30 33 36 39 43 46 50 45 55 58 64 62 61 65 66 66 67 70 72 76 80 82 84 86 93 97 99 97 91
25 28 32 35 38 41 45 47 49 49 50 58 62 64 63 63 65 66 66 69 73 76 80 84 87 90 94 99 95 89 81 74

GFSFLT2_500_spd_024.txt.gz
Wind_Speed
40 24 22 18 14 8 7 6 6 6 7 12 15 15 16 18 19 22 25 26 26 27 27 24 23 25 25 27 28 31 32 30
30 12 14 9 11 8 4 5 5 9 8 11 14 17 18 18 21 25 27 27 26 25 25 27 30 29 29 31 29 31 32 35
29 15 7 12 9 5 5 6 8 9 10 15 16 17 20 22 24 26 25 29 29 30 32 32 31 30 27 31 35 37 35 34
10 16 16 13 7 3 4 9 10 12 14 16 19 22 22 21 24 24 28 29 24 27 29 26 27 30 32 35 34 37 40 39
10 9 5 4 4 5 6 8 12 15 18 20 22 23 26 22 20 28 30 27 22 24 31 25 32 37 36 39 42 40 43 45
3 2 0 1 3 6 8 9 17 19 19 20 20 23 20 19 18 27 28 28 29 33 46 43 39 40 43 39 40 43 45 46
3 3 3 5 6 8 10 15 18 20 19 14 16 13 22 31 26 34 40 32 36 43 46 46 45 43 45 47 44 42 46 45
4 5 6 7 9 12 16 19 18 22 26 10 11 29 32 28 33 35 43 42 37 38 37 39 42 42 41 41 40 40 40 43
5 8 11 12 15 17 19 23 28 28 30 20 22 31 33 35 35 35 36 37 37 37 37 38 39 40 43 45 46 45 45 47
8 10 14 15 17 19 23 20 26 32 29 26 25 30 32 34 36 37 38 38 39 40 42 44 46 48 47 48 48 46 47 48
13 14 19 21 23 22 21 23 30 35 34 31 32 32 34 35 37 38 40 42 43 44 45 47 48 50 52 52 51 52 53 54
20 19 20 23 25 25 23 29 33 33 29 30 32 35 38 41 42 43 43 46 49 52 53 54 53 54 55 56 55 50 50 54
22 21 21 22 25 26 27 30 29 26 29 33 37 41 44 45 46 48 50 51 52 53 54 56 55 54 52 51 52 52 55 59
22 24 23 26 25 26 29 25 26 29 33 35 39 42 44 45 46 48 52 54 55 56 58 59 57 56 55 56 57 60 62 65
25 27 28 26 22 21 23 24 28 30 34 39 42 45 48 48 49 51 57 59 59 59 60 60 58 57 59 62 64 68 71 75
28 26 20 20 21 24 26 29 33 36 40 43 46 48 51 50 51 57 61 60 60 60 62 60 60 62 65 68 71 76 80 82
21 18 18 21 24 26 31 35 39 42 45 48 50 54 55 54 58 61 64 64 64 62 62 61 63 67 69 72 75 78 83 90
18 18 21 24 28 32 36 40 44 46 49 50 52 54 55 55 58 61 64 65 63 63 62 64 67 69 72 75 82 90 97 103
20 23 26 30 34 37 41 44 47 50 52 54 56 56 56 56 59 63 64 64 63 62 64 68 70 74 76 82 90 99 102 104
26 30 33 36 40 43 46 49 51 53 56 58 59 60 59 61 63 64 64 63 62 64 67 70 72 76 83 90 98 102 104 90

GFSFLT2_500_spd_027.txt.gz
Wind_Speed
40 28 42 38 26 24 13 11 11 8 9 7 2 11 18 18 18 18 20 24 25 22 24 23 22 23 25 24 26 24 23 28
20 25 34 30 21 16 14 13 8 6 5 7 13 16 16 17 18 21 22 23 24 25 23 23 24 27 28 29 28 26 28 36
14 21 22 26 14 13 17 8 6 7 10 11 13 13 17 17 20 22 25 25 25 27 23 23 24 24 23 31 32 35 36 36
17 14 27 22 21 16 9 7 4 5 9 14 16 17 19 19 19 22 19 18 22 26 26 25 28 27 36 39 37 39 42 45
8 18 16 15 11 6 2 2 4 8 12 16 20 20 18 8 16 15 20 23 27 25 30 34 33 37 38 35 35 39 43 43
15 14 11 8 6 3 2 1 5 9 9 12 8 8 6 13 14 16 21 27 32 33 33 35 35 35 38 39 39 36 38 39
13 9 7 5 2 1 2 5 8 9 9 19 15 11 15 24 26 23 26 28 27 28 29 31 32 35 35 36 37 39 39 40
8 6 3 2 1 2 5 6 9 14 20 20 18 17 18 20 23 21 24 26 28 29 30 31 33 36 38 40 42 43 43 45
4 2 3 3 6 10 12 13 10 18 22 24 20 17 18 18 21 24 26 28 30 32 32 35 37 39 40 41 42 43 44 45
3 5 8 11 10 15 14 15 15 20 26 22 15 16 20 23 25 28 30 33 34 36 38 40 43 45 47 49 52 51 46 44
8 12 12 13 16 16 17 20 21 21 23 17 18 21 25 28 31 34 36 38 38 39 43 46 49 50 51 51 52 49 45 46
14 18 17 15 17 18 19 19 21 21 19 21 25 27 31 33 36 39 41 41 43 46 48 51 51 51 52 52 51 48 44 47
15 18 17 19 19 21 20 20 19 19 23 27 31 33 38 39 40 42 44 44 46 49 51 52 54 54 54 53 51 49 49 52
17 16 20 22 20 17 17 18 20 24 28 32 35 38 43 45 47 48 50 50 51 53 54 57 57 57 57 56 52 51 54 58
19 19 24 19 15 17 20 22 26 29 32 36 40 44 47 50 50 51 53 53 52 54 56 57 58 57 57 56 55 58 61 64
22 24 19 17 18 21 23 26 29 32 35 40 44 47 50 52 54 56 58 57 57 57 58 59 58 56 55 58 61 66 69 67
20 17 18 19 21 25 29 34 37 41 43 46 48 51 53 56 57 59 60 60 61 61 61 61 59 58 58 61 66 69 69 71
16 16 19 23 28 32 35 39 42 45 49 51 54 56 57 58 59 60 60 58 59 61 62 60 60 61 64 66 70 69 70 73
16 18 23 28 33 36 40 44 47 50 53 55 57 57 58 59 59 59 55 60 60 61 61 62 64 65 67 70 74 79 79 82
21 24 28 32 36 41 46 48 51 52 54 56 57 58 59 60 59 52 60 59 62 61 63 65 66 67 70 72 77 83 86 87

GFSFLT2_500_spd_030.txt.gz
Wind_Speed
30 21 19 28 36 40 42 31 17 12 10 10 11 14 12 15 19 23 23 23 26 28 25 27 25 21 22 21 19 19 25 27
42 39 34 36 32 30 22 13 15 13 10 8 8 12 18 21 23 22 23 26 27 28 29 24 18 20 23 24 28 29 30 29
17 28 29 27 22 16 12 17 16 13 9 10 14 16 17 17 19 22 22 27 28 22 22 18 20 23 25 29 32 33 37 39
27 19 30 23 15 20 22 11 8 7 7 10 13 15 16 15 13 10 14 16 19 21 25 25 24 29 32 31 35 37 37 39
16 14 17 24 23 17 12 10 7 2 3 7 10 13 13 13 7 12 15 18 21 24 26 29 33 33 29 29 30 32 34 37
14 14 17 16 13 13 10 7 6 4 1 5 12 8 8 9 13 18 19 20 22 23 25 24 26 28 32 34 35 34 34 36
6 17 17 14 9 8 6 3 3 6 6 11 15 14 10 13 16 16 16 16 20 23 26 30 31 33 34 36 37 38 38 38
13 12 12 10 6 4 1 3 5 4 6 12 15 14 8 7 10 13 17 22 25 28 30 31 33 34 36 37 38 41 42 44
8 8 7 5 3 3 4 6 6 8 11 12 11 9 9 11 16 21 24 27 27 30 31 33 34 36 36 39 42 44 45 46
6 5 4 3 1 6 6 6 9 11 14 14 9 12 14 19 23 25 26 28 30 33 35 37 39 40 41 43 46 47 47 49
2 5 7 6 6 10 10 12 13 16 16 12 13 17 20 24 26 29 32 34 36 38 39 39 41 43 44 46 48 49 50 49
6 9 9 7 11 11 13 13 14 14 12 13 18 22 25 29 32 34 37 39 41 43 43 44 45 45 46 49 50 52 51 47
15 12 10 11 16 14 12 10 9 12 15 20 24 28 31 34 37 40 43 45 47 48 50 50 49 50 49 51 52 52 50 48
13 13 12 14 12 9 10 12 14 17 22 26 30 33 36 39 43 46 48 50 51 53 54 54 55 53 53 53 54 50 49 50
13 10 13 13 11 12 14 16 20 24 28 32 35 38 41 45 47 50 52 53 55 56 55 55 54 53 54 56 52 50 52 54
12 11 10 11 12 16 18 22 26 29 33 37 40 43 45 47 50 52 55 56 57 56 55 54 55 55 56 52 53 55 57 58
14 9 9 11 15 20 25 28 32 35 38 41 44 47 49 50 53 56 56 57 57 57 56 55 57 59 56 56 58 60 61 62
10 12 14 17 21 26 30 34 37 40 43 46 48 51 54 56 56 56 58 58 57 56 54 57 60 58 59 61 64 66 66 68
12 14 18 23 27 31 35 39 43 47 49 52 54 56 57 58 57 58 59 59 57 58 60 60 59 62 65 68 70 72 75 75
17 19 24 29 32 36 40 45 48 51 53 55 56 59 57 59 60 61 61 60 59 62 61 60 63 65 67 72 75 79 81 85

GFSFLT2_500_spd_033.txt.gz
Wind_Speed
28 37 37 41 32 36 40 30 41 38 14 10 11 13 14 17 21 20 18 24 24 28 30 30 31 22 21 19 20 21 25 28
29 43 44 25 24 28 40 44 33 17 13 13 15 13 13 13 14 18 22 23 26 23 16 18 19 20 22 25 27 29 32 36
44 44 34 28 33 26 31 29 21 19 16 15 14 12 13 15 20 21 23 17 12 15 19 22 25 27 28 29 31 34 35 35
31 23 20 17 19 25 19 20 17 13 10 10 11 14 17 19 19 16 13 12 16 20 23 25 28 28 27 27 28 29 31 35
25 26 21 28 23 20 21 14 10 10 7 9 10 9 12 11 15 13 12 16 20 20 20 18 20 22 26 29 32 33 35 38
23 16 21 21 23 21 17 13 12 13 9 3 1 4 7 10 13 17 18 17 16 19 23 26 27 30 32 34 34 36 37 40
11 16 15 11 12 13 12 10 4 8 4 5 7 10 9 8 13 14 11 16 20 24 27 29 30 31 33 35 37 39 41 42
18 18 13 10 9 9 7 6 7 5 4 8 11 11 7 6 9 9 15 20 23 25 29 32 33 35 38 40 42 42 42 42
14 12 10 9 10 6 6 5 4 5 6 9 13 8 6 10 13 16 21 25 28 31 35 37 39 40 42 43 44 45 44 43
10 8 5 6 6 2 3 3 7 6 10 12 10 8 10 15 19 23 27 30 33 36 39 40 42 44 45 46 48 47 46 46
8 3 4 3 1 3 4 6 8 10 11 11 8 12 16 22 25 28 31 34 37 40 40 43 45 46 47 48 49 48 47 46
5 1 2 3 3 6 8 8 8 8 8 10 12 18 22 26 30 32 35 38 40 42 44 46 46 47 48 49 49 48 47 48
1 2 2 2 5 7 4 3 4 8 11 14 19 24 28 31 34 35 38 42 44 46 47 48 49 51 49 49 47 48 50 52
2 1 3 3 5 4 5 6 9 12 16 21 25 28 32 34 37 40 44 47 49 49 48 49 51 51 50 49 48 51 53 53
6 2 4 6 7 6 8 13 15 18 23 27 30 33 37 39 42 44 47 49 49 49 50 51 53 51 50 52 53 54 55 55
9 9 8 8 9 11 14 17 20 26 30 33 36 39 43 46 47 49 49 49 50 49 52 55 53 52 52 53 57 57 57 56
9 8 12 11 12 15 18 23 28 33 35 37 40 43 46 48 50 51 54 51 50 53 52 51 54 55 57 58 57 60 61 64
6 8 12 14 16 20 23 28 35 38 39 42 43 47 49 50 52 53 51 53 55 58 52 60 62 61 61 61 63 65 68 69
8 9 15 17 20 25 29 35 39 43 43 45 48 50 49 52 52 51 54 54 56 56 57 61 64 63 64 66 70 72 74 75
15 14 17 23 26 30 34 39 45 44 43 46 50 51 52 52 52 47 60 58 57 58 61 63 63 67 70 73 76 80 83 84

GFSFLT2_500_spd_036.txt.gz
Wind_Speed
32 35 35 33 30 39 35 33 35 35 31 34 18 13 9 12 15 18 19 21 22 22 27 26 25 19 23 21 21 21 22 26
42 41 41 47 52 45 33 33 32 31 28 22 12 8 8 10 14 15 14 17 19 22 19 21 26 22 23 24 25 23 23 24
37 34 42 41 42 34 34 34 36 31 15 11 10 8 9 14 15 16 18 18 14 18 22 20 22 23 21 21 22 26 29 31
33 39 42 44 35 31 27 24 24 22 12 12 12 13 13 13 16 20 19 17 20 18 19 19 16 19 21 25 27 29 32 34
19 28 35 31 19 22 23 16 21 16 12 11 11 10 13 15 12 18 27 19 14 13 13 17 20 23 25 28 29 30 32 34
13 23 16 20 24 24 21 22 18 15 13 11 6 3 7 11 13 14 13 18 16 14 18 23 25 27 29 31 32 33 35 37
7 12 12 17 20 17 15 14 15 14 9 5 4 6 9 10 12 9 10 11 16 20 23 26 29 31 33 35 37 38 39 40
21 23 19 17 15 11 7 7 7 8 10 7 8 9 11 7 3 6 11 17 20 24 28 31 34 36 38 39 41 43 43 44
19 16 14 13 12 11 10 10 7 10 11 7 7 9 6 5 8 11 18 22 26 29 32 35 39 41 42 44 45 46 47 47
16 13 11 11 11 8 10 11 10 8 9 9 11 9 8 10 14 17 22 27 30 34 37 41 43 44 45 47 47 47 48 47
14 11 9 9 10 10 11 11 8 12 9 9 9 9 12 15 20 23 28 32 36 39 42 45 46 47 47 47 47 48 48 46
7 5 7 7 7 8 7 8 9 9 7 8 10 13 16 20 24 29 33 37 40 43 46 48 48 48 48 48 48 48 46 44
8 7 5 7 8 9 8 8 8 7 8 11 14 18 22 25 30 34 37 41 44 47 47 49 49 48 48 48 49 47 47 47
8 7 8 9 11 11 9 9 9 10 13 15 18 24 27 31 34 37 40 43 45 46 48 48 46 46 49 49 46 48 50 51
7 9 13 14 14 14 12 13 14 16 17 19 24 29 32 35 37 40 43 43 45 45 45 47 44 50 53 49 52 53 54 54
9 12 15 14 13 15 14 16 18 19 20 24 30 35 38 39 39 43 42 44 45 45 45 44 48 53 52 53 55 59 58 57
12 12 14 15 15 14 14 17 22 24 27 30 37 40 41 43 43 45 46 47 49 45 51 53 53 54 56 59 59 60 63 66
15 11 12 12 11 13 15 19 24 26 30 35 42 41 42 44 46 46 46 44 47 52 48 58 55 57 59 60 62 66 70 73
13 13 18 12 14 17 20 24 28 31 31 39 40 39 40 47 49 48 50 44 55 52 56 56 59 61 63 65 68 73 76 77
15 18 19 13 17 22 26 31 33 34 35 38 38 41 43 52 50 50 40 54 53 55 57 59 61 64 68 71 75 79 80 83

GFSFLT2_500_spd_042.txt.gz
Wind_Speed
27 25 27 26 35 34 20 27 22 22 23 25 30 26 22 20 19 20 19 17 16 12 13 13 13 11 17 15 13 11 11 16
27 28 32 33 48 50 34 32 29 29 33 30 36 18 23 25 22 16 13 11 12 12 11 8 11 12 14 15 14 15 17 19
25 30 30 29 37 39 40 43 33 31 38 33 22 18 19 18 13 12 11 11 11 12 9 12 11 14 15 14 16 19 22 24
31 28 34 40 46 47 44 48 45 29 31 27 17 19 17 13 13 12 12 12 12 11 12 14 13 14 15 18 21 24 25 29
28 32 35 36 38 48 49 50 37 28 17 19 17 18 12 13 12 15 14 13 11 14 15 17 14 16 18 21 26 29 32 34
28 27 29 30 31 39 39 36 18 25 29 17 16 15 12 12 13 14 12 14 14 10 10 12 15 19 22 26 30 32 36 37
27 29 30 33 20 27 28 23 28 24 19 19 17 14 13 13 13 13 15 14 9 10 12 15 18 23 27 30 33 36 39 41
22 23 22 16 17 22 29 28 21 20 21 20 19 17 14 12 12 13 10 9 9 12 16 20 24 28 32 35 37 40 42 43
23 24 23 14 17 20 23 23 21 18 17 14 12 10 10 11 11 10 11 9 12 17 21 25 28 32 36 38 40 42 44 45
25 24 23 23 21 19 18 16 15 16 13 12 12 11 12 11 12 12 11 14 18 21 25 29 34 38 40 42 42 44 46 48
17 18 18 17 15 13 12 12 11 11 13 14 14 16 14 12 11 12 15 19 23 27 31 34 37 40 44 44 45 48 49 47
11 10 11 13 11 10 8 7 9 12 13 16 15 16 13 11 13 14 18 22 27 31 34 38 40 45 46 46 48 47 44 45
9 8 8 9 10 12 12 12 12 13 15 16 15 14 14 14 15 19 22 27 31 34 36 38 43 46 46 50 48 45 46 49
9 10 10 12 12 9 9 9 13 15 16 15 15 15 16 18 20 24 27 30 34 37 38 42 42 48 48 50 47 52 51 55
10 11 12 14 14 16 11 12 14 15 14 16 18 18 21 24 29 33 34 37 38 39 42 44 47 51 50 51 49 53 59 62
12 13 14 16 16 17 14 13 16 17 18 18 19 22 25 30 32 36 39 39 41 41 44 48 51 54 53 54 52 60 58 61
14 15 15 16 17 20 20 19 18 18 17 19 22 24 27 30 33 36 41 42 44 44 44 51 53 58 57 61 59 57 58 58
18 17 17 20 21 24 24 25 25 22 19 20 24 28 30 30 33 37 42 44 47 47 50 56 58 62 61 61 59 60 58 58
24 21 22 23 25 31 28 31 31 27 23 22 27 30 31 32 37 39 42 45 49 51 54 55 66 61 63 61 61 62 61 62
28 27 25 26 25 26 31 30 19 20 22 26 29 31 32 34 35 40 39 46 49 52 59 66 62 55 64 65 65 64 64 68

GFSFLT2_500_spd_045.txt.gz
Wind_Speed
29 31 31 32 32 30 31 36 29 30 24 21 23 26 28 25 21 18 18 19 19 19 16 11 11 13 11 15 11 10 9 12
37 30 32 32 30 36 31 39 29 34 29 23 26 33 32 22 20 20 18 19 15 12 10 10 9 10 10 9 11 12 13 16
28 33 38 36 31 33 41 38 36 41 34 29 36 38 23 22 18 19 13 12 11 9 9 8 10 12 10 12 13 15 18 21
33 27 27 29 33 38 40 34 44 55 42 38 34 31 21 15 15 14 13 10 9 10 12 12 10 12 12 14 17 19 23 26
29 31 25 27 25 33 34 48 37 41 46 40 32 24 15 15 14 12 10 10 13 10 12 11 11 13 13 17 21 25 28 30
30 30 25 27 38 44 38 31 40 39 40 29 30 23 17 14 12 10 11 13 12 12 11 9 9 13 17 22 25 28 32 35
30 28 26 29 31 30 32 36 25 31 30 31 20 17 16 13 12 11 12 12 12 11 10 9 13 17 21 25 30 34 37 39
25 29 29 28 28 33 37 33 30 36 30 20 19 17 15 13 11 11 12 10 9 9 9 14 18 21 25 29 33 36 40 42
29 28 30 27 26 25 23 26 29 31 21 17 15 13 11 10 10 11 10 8 10 12 14 18 22 26 29 32 34 40 42 42
19 25 26 23 21 10 16 19 21 18 15 13 14 11 12 11 9 9 9 12 12 16 19 23 26 29 33 35 38 42 44 45
21 21 20 19 22 17 16 15 14 13 12 12 14 13 12 11 8 13 14 14 16 20 23 26 29 32 34 36 40 44 46 47
15 15 16 15 16 14 14 13 11 11 14 15 15 14 14 12 12 14 15 18 22 23 25 30 32 34 35 37 42 45 47 48
8 9 9 9 8 7 6 6 10 13 14 14 15 14 15 14 14 15 20 23 25 27 28 32 35 36 38 41 46 46 48 46
3 3 4 5 5 3 4 7 9 13 15 16 16 16 14 16 17 20 24 28 30 33 38 40 38 38 41 45 49 53 54 52
6 5 5 6 7 10 11 12 12 13 13 15 14 15 16 19 21 25 29 35 37 39 39 42 44 44 46 47 53 57 63 62
7 7 7 8 10 14 15 15 13 15 16 16 16 18 21 23 27 30 33 36 38 39 39 42 45 47 50 52 58 63 67 62
11 12 13 13 13 15 16 16 20 19 21 23 23 23 23 25 27 31 35 37 38 41 43 44 49 53 56 57 63 67 66 60
16 17 17 16 16 18 20 25 24 23 25 25 25 24 24 25 28 31 35 38 40 43 45 45 50 52 54 60 68 68 66 65
21 21 22 21 21 21 22 18 27 40 34 34 30 28 27 26 29 35 36 37 39 43 45 48 54 60 57 70 70 67 64 64
21 23 25 23 27 26 19 19 24 27 16 36 25 26 27 30 32 37 37 37 38 43 48 53 55 59 65 70 67 64 64 73

GFSFLT2_500_spd_048.txt.gz
Wind_Speed
23 24 22 26 27 27 28 28 28 33 28 28 26 26 25 25 21 22 16 13 13 13 13 15 9 8 7 8 11 7 7 7
25 29 24 39 39 35 32 33 30 31 33 32 29 25 25 27 25 25 18 14 12 12 8 6 6 5 7 10 7 9 9 13
23 21 21 19 32 34 38 34 31 35 38 41 33 28 30 33 23 20 15 12 9 7 7 6 7 8 7 8 9 10 12 16
22 21 23 28 22 29 35 34 23 29 37 43 33 33 29 23 20 19 11 10 9 8 8 9 10 9 9 10 10 14 16 21
23 23 27 28 30 17 21 27 39 35 38 42 42 46 23 21 21 13 12 12 11 10 11 13 12 11 9 10 13 17 19 23
27 23 30 30 27 21 29 34 30 37 32 34 35 38 24 22 12 14 13 13 11 10 10 11 9 9 9 13 17 20 22 26
27 30 29 30 20 15 22 36 37 26 22 23 29 37 31 21 18 15 13 10 9 9 12 11 9 9 12 17 21 23 25 29
25 27 28 27 36 30 33 23 31 27 25 24 29 26 20 15 15 11 11 10 11 12 11 10 10 13 17 20 23 26 29 33
27 24 18 22 26 22 24 27 29 35 23 22 24 20 19 15 11 10 11 10 10 11 10 11 15 17 21 22 24 27 30 34
18 23 27 25 29 20 19 22 16 11 15 20 20 17 14 13 12 9 10 11 10 11 13 17 19 20 22 23 26 28 32 35
12 13 16 20 20 15 11 8 10 15 17 14 12 11 11 9 7 7 10 13 14 16 19 20 21 22 23 27 29 31 34 37
15 12 13 18 17 22 18 15 15 12 9 7 7 7 7 9 10 12 13 16 19 21 21 24 25 27 31 30 30 33 37 41
16 15 13 15 14 12 11 8 5 4 3 5 7 8 12 14 15 14 17 18 20 23 26 28 32 34 35 34 36 38 42 45
10 11 9 9 8 8 7 4 3 2 4 8 10 14 17 17 18 17 18 21 24 27 32 34 37 36 34 37 39 43 45 49
8 8 9 8 7 7 6 7 8 9 9 10 14 16 16 17 17 20 22 27 25 31 35 35 36 36 39 41 41 46 50 53
5 7 8 8 8 7 8 10 10 12 14 15 15 16 19 19 22 25 25 28 31 31 34 34 37 39 42 46 48 50 53 59
5 5 7 8 10 10 11 10 10 12 16 18 20 26 25 24 25 28 29 28 30 31 35 37 41 44 45 50 51 55 58 60
10 10 11 11 12 12 13 12 12 14 17 17 29 34 34 28 29 25 29 30 30 34 37 38 39 42 47 51 56 58 64 66
12 13 14 14 12 15 17 11 24 18 18 23 22 30 31 28 28 28 28 28 32 34 34 38 40 47 50 56 57 58 67 70
11 13 15 16 16 13 16 17 16 16 20 27 27 28 18 20 25 26 28 31 34 37 37 38 42 45 49 58 58 67 71 69

GFSFLT2_500_spd_051.txt.gz
Wind_Speed
25 24 23 24 30 29 27 27 29 26 25 25 23 25 26 24 25 23 20 17 16 15 14 13 12 8 6 4 3 5 3 5
22 23 20 16 20 26 25 28 28 26 27 30 25 28 25 27 26 23 20 22 19 14 12 10 8 7 5 1 2 4 4 7
21 20 19 23 22 20 25 31 31 32 28 30 25 26 28 32 32 25 19 17 15 12 9 9 9 7 3 2 4 7 6 9
20 18 22 23 16 11 16 30 38 28 31 32 31 31 40 41 38 27 19 17 13 14 13 10 9 7 5 6 6 10 9 11
23 24 17 15 10 13 17 18 20 32 34 35 39 33 27 38 34 23 20 14 16 15 13 11 10 9 10 10 8 11 13 14
18 16 20 16 12 18 20 18 20 21 21 19 24 30 19 30 24 23 16 18 18 16 13 10 10 10 9 9 10 12 16 14
20 18 18 22 22 23 24 15 15 16 23 27 14 16 18 22 21 21 18 16 16 14 12 10 12 11 10 10 12 15 17 18
23 20 21 22 23 23 21 16 21 14 16 19 20 16 17 24 24 21 18 15 15 13 11 11 12 12 11 13 15 17 17 19
21 21 22 24 25 19 17 15 18 18 23 26 24 13 14 19 21 19 15 13 11 12 12 13 13 13 13 16 17 19 21 22
16 19 22 24 18 16 16 19 21 17 12 10 11 16 23 24 16 12 14 12 13 14 15 14 15 15 18 18 19 22 24 26
15 16 19 23 21 18 15 17 19 18 8 10 16 21 17 16 12 11 11 14 17 16 16 16 17 18 20 21 27 26 26 27
10 9 7 10 10 15 13 15 20 21 20 19 18 17 14 12 10 10 11 15 16 17 17 18 19 22 25 28 29 27 27 31
18 19 22 23 19 16 17 17 14 14 12 9 10 11 12 12 12 13 13 18 18 19 20 23 25 26 31 32 31 29 30 34
18 18 19 15 15 12 15 13 12 9 6 2 3 8 11 13 14 15 16 20 20 21 23 24 28 31 33 32 33 32 37 40
14 14 14 12 11 11 10 11 10 8 6 1 5 9 13 15 14 17 20 20 22 23 26 29 33 32 34 34 35 37 41 43
9 10 11 12 11 10 9 7 5 2 2 2 4 7 10 14 17 18 20 22 24 25 27 29 33 34 34 36 39 40 44 47
4 5 6 5 5 6 6 3 2 4 4 8 11 11 14 21 24 26 25 26 28 29 28 31 33 36 39 39 39 43 48 49
1 1 1 1 2 3 4 6 7 3 10 8 8 8 16 16 32 31 28 31 29 29 34 33 34 30 37 40 42 46 51 54
6 5 6 6 7 8 9 9 9 12 10 12 14 13 18 21 15 29 26 30 28 28 27 28 31 35 39 39 40 53 55 52
10 10 9 7 7 8 8 12 13 12 13 13 15 17 17 17 18 18 18 19 24 25 30 33 34 37 41 43 45 47 51 56

GFSFLT2_500_spd_054.txt.gz
Wind_Speed
31 27 20 20 23 34 29 44 41 39 35 29 28 25 24 24 24 23 24 24 24 22 20 19 17 10 16 11 9 7 7 6
24 25 22 21 21 29 51 46 40 43 33 31 29 25 22 21 23 27 28 28 25 23 20 18 18 11 14 12 10 8 8 7
20 19 20 20 21 30 25 40 45 34 25 29 29 25 23 19 26 31 31 27 28 28 22 18 14 15 16 11 9 8 8 7
17 20 22 15 22 23 17 22 25 25 29 27 28 25 24 24 27 28 33 31 27 23 17 16 15 16 14 12 12 12 10 9
19 15 21 24 19 18 8 8 14 26 29 29 28 29 27 32 29 23 21 31 30 21 18 18 18 16 15 14 14 12 11 12
17 20 18 9 9 6 5 7 10 16 14 22 25 12 20 14 19 15 20 23 25 20 19 18 16 15 14 15 13 11 12 13
17 16 15 11 9 8 11 10 14 12 12 12 14 21 19 18 16 20 18 24 24 22 19 17 17 16 15 14 11 12 13 15
20 20 21 16 14 16 13 16 19 10 12 12 13 18 21 13 15 20 22 25 22 20 18 18 16 15 15 14 14 15 16 17
23 24 22 20 16 24 25 18 16 19 16 16 17 23 22 13 14 22 25 22 19 18 17 17 18 18 16 15 15 15 18 19
22 25 23 23 21 20 16 14 13 18 21 17 24 27 20 16 13 20 18 15 17 17 17 17 18 18 17 16 16 19 19 23
25 28 24 22 21 19 16 17 21 21 18 20 19 19 17 17 26 20 18 19 15 16 19 21 19 18 17 18 20 21 25 28
22 22 22 19 17 17 21 23 20 22 24 25 23 20 25 25 17 15 14 15 19 21 21 20 20 20 20 22 23 27 31 31
13 14 12 7 10 16 19 14 16 15 21 23 20 21 18 18 15 15 15 18 19 21 22 22 24 23 24 25 26 31 30 32
20 21 22 18 19 19 19 16 17 15 14 15 18 18 17 17 17 17 18 18 21 23 23 24 24 24 27 31 31 31 30 31
17 17 17 17 17 17 16 15 16 14 12 12 12 14 16 16 17 18 19 21 24 26 25 26 26 27 30 33 35 35 35 37
14 15 16 15 15 14 14 12 12 11 9 6 6 6 8 9 14 18 20 21 22 24 26 28 29 30 31 34 37 38 36 37
10 11 12 12 11 11 9 8 6 5 5 3 2 5 5 7 13 20 23 24 25 25 30 29 33 35 35 37 39 31 38 41
4 6 7 6 6 7 8 6 2 5 3 3 6 5 6 7 8 11 24 30 32 33 30 31 31 36 34 31 33 35 39 40
2 3 4 6 6 6 5 5 7 6 7 8 12 12 11 10 12 11 14 16 21 26 28 30 32 30 29 32 36 37 39 41
6 7 7 8 7 7 8 12 9 10 11 11 12 13 14 14 13 11 15 16 19 23 26 26 30 33 32 32 36 37 40 44

GFSFLT2_500_spd_057.txt.gz
Wind_Speed
42 43 39 38 29 36 54 49 55 41 35 37 33 28 27 22 24 22 23 22 21 20 22 22 22 21 20 17 15 13 13 12
42 39 36 38 23 24 15 22 43 46 49 40 35 28 25 22 23 22 20 22 23 22 22 23 25 26 20 17 16 16 15 13
30 31 28 24 32 17 10 19 31 45 40 36 30 29 26 25 25 23 18 22 28 25 25 24 25 25 17 16 18 17 15 14
25 24 24 22 21 19 18 24 26 40 44 34 31 29 25 25 25 25 23 23 24 26 28 26 26 21 16 19 19 17 15 13
24 21 25 24 24 22 22 15 21 38 39 29 30 25 24 33 27 24 28 25 21 22 32 26 22 23 23 20 18 16 14 13
11 26 15 7 10 21 17 14 19 18 23 28 25 28 24 18 31 25 18 23 23 23 29 26 25 25 24 21 18 17 17 16
14 15 13 5 9 6 12 8 8 19 25 23 23 24 31 17 19 21 17 23 21 25 28 23 23 25 24 23 21 20 19 18
14 15 12 13 7 13 12 6 10 12 23 21 20 22 18 21 22 23 18 21 18 26 24 24 25 25 24 22 22 20 18 18
17 18 18 16 16 12 11 11 9 15 20 12 16 23 17 21 23 20 19 19 22 24 24 24 24 24 24 23 21 18 19 19
19 17 20 18 19 20 14 16 16 20 17 17 18 19 20 24 23 17 19 22 26 28 26 22 22 22 23 22 21 21 20 21
17 15 22 19 19 20 25 22 19 19 18 20 21 24 25 27 24 19 20 22 19 20 21 23 24 23 25 24 23 22 22 24
19 20 19 21 23 26 26 24 22 21 23 28 25 25 24 27 23 18 21 19 19 20 23 24 23 24 26 26 24 24 25 26
19 18 22 27 27 27 30 30 24 25 25 27 27 24 24 22 20 26 25 21 21 21 21 22 23 27 27 26 25 27 27 29
11 9 14 22 26 27 25 25 22 26 27 25 17 18 18 22 24 23 21 19 20 20 21 24 28 29 27 28 28 28 32 33
15 15 15 16 17 20 20 17 16 17 16 16 17 17 20 21 18 19 20 21 21 22 23 28 29 31 30 30 31 30 31 33
8 8 12 15 16 16 17 19 17 14 14 15 15 18 19 20 20 21 21 21 22 25 28 28 30 32 32 33 34 35 37 39
11 11 11 13 14 15 16 15 13 13 15 14 15 17 18 17 17 18 20 21 25 26 29 29 30 33 34 32 37 40 41 41
9 9 8 9 11 12 13 14 14 14 15 16 18 17 16 13 10 10 12 16 22 30 34 32 31 34 30 35 37 40 38 36
4 7 7 8 10 12 13 13 11 14 13 13 14 13 14 15 12 12 14 15 16 26 35 35 37 37 37 32 31 35 37 36
5 4 6 8 8 9 9 10 12 13 13 13 13 15 15 17 19 18 17 18 19 17 21 29 28 30 31 35 37 36 36 35